Regional Weather Roundup
Issued by NWS

Home | Current Version | Previous Version | Text Only | Print | Product List | Glossary Off
Versions: 1 2 3 4 5 6 7 8 9 10 11 12 13 14 15 16 17 18 19 20 21 22 23 24 25 26 27 28 29 30 31 32 33 34 35 36 37 38 39 40 41 42 43 44 45 46 47 48 49 50

000
ASUS44 KMEG 260910
RWRTN
TENNESSEE HOURLY STATE WEATHER ROUNDUP
NATIONAL WEATHER SERVICE MEMPHIS TN
300 AM CST WED NOV 26 2014

TNZ002-004-019-021-049-052-054-088>092-261000-
WEST TENNESSEE

CITY           SKY/WX    TMP DP  RH WIND       PRES   REMARKS
MEMPHIS INTL   PTCLDY    32  26  78 CALM      30.15F
NWS MEMPHIS      N/A     28 N/A N/A MISG        N/A
JACKSON        CLEAR     25  22  88 CALM      30.16R
DYERSBURG      CLEAR     27  14  59 E5        30.17F WCI  21
UNION CITY     CLEAR     25  23  93 CALM      30.14F
PARIS          CLEAR     21  19  93 CALM      30.15S
HUNTINGDON     CLEAR     22  21  96 CALM      30.15S
LEXINGTON      CLEAR     27  23  86 CALM      30.13S
SAVANNAH       CLEAR     25  25 100 CALM      30.14F
$$

TNZ008-025-027-028-033-062-065-066-261000-
NORTH MIDDLE TENNESSEE

CITY           SKY/WX    TMP DP  RH WIND       PRES   REMARKS
NASHVILLE      CLEAR     33  27  78 NW5       30.12S WCI  29
CLARKSVILLE    CLEAR     26  24  92 CALM      30.13F
SMYRNA         CLEAR     28  25  89 NW5       30.12F WCI  23
COOKEVILLE     PTCLDY    37  28  70 NW5       30.05S WCI  34
CROSSVILLE     CLOUDY    38  26  62 N3        30.02S
$$

TNZ061-075-076-078-094-096-097-261000-
SOUTH MIDDLE TENNESSEE

CITY           SKY/WX    TMP DP  RH WIND       PRES   REMARKS
FAYETTEVILLE   CLEAR     34  25  69 MISG      30.08S
TULLAHOMA      CLEAR     30  25  80 NW5       30.06F WCI  25
WINCHESTER     PTCLDY    36  28  75 NW5       30.07S WCI  32
MCMINNVILLE    PTCLDY    36  28  75 CALM      30.06R
COLUMBIA       CLEAR     28  28 100 CALM      30.10F
SHELBYVILLE    CLEAR     30  28  93 N7        30.10S WCI  23
$$

TNZ017-018-042-046-047-261000-
NORTHEAST TENNESSEE

CITY           SKY/WX    TMP DP  RH WIND       PRES   REMARKS
TRI CITIES     LGT RAIN  42  35  76 E6        29.94F
ELIZABETHTON   LGT RAIN  41  36  81 E5        29.96F
$$

TNZ012-013-036-069-073-074-261000-
CENTRAL EAST TENNESSEE

CITY           SKY/WX    TMP DP  RH WIND       PRES   REMARKS
KNOXVILLE      CLOUDY    44  30  57 NW5       30.01R
OAK RIDGE      CLOUDY    46  30  53 CALM      30.02F
GATLINBURG     PTSUNNY   45  28  53 W5        29.97S
MORRISTOWN     SUNNY     45  30  57 N9        29.96F
$$

TNZ083-085-099-261000-
SOUTHEAST TENNESSEE

CITY           SKY/WX    TMP DP  RH WIND       PRES   REMARKS
CHATTANOOGA    CLOUDY    45  31  58 NW5       30.01F
$$

SKY/WX REPORTED AS FAIR MEANS FEW OR NO CLOUDS BELOW
12 THOUSAND FEET.



USA.gov is the U.S. government's official web portal to all federal, state and local government web resources and services.